Regional Weather Roundup
Issued by NWS

Home | Current Version | Previous Version | Text Only | Print | Product List | Glossary On
Versions: 1 2 3 4 5 6 7 8 9 10 11 12 13 14 15 16 17 18 19 20 21 22 23 24 25 26 27 28 29 30 31 32 33 34 35 36 37 38 39 40 41 42 43 44 45 46 47 48 49 50
803
ASUS43 KTOP 171508
RWRKS

WEATHER ROUNDUP FOR KANSAS
NATIONAL WEATHER SERVICE GOODLAND KS
900 AM CST FRI NOV 17 2017

NOTE:  "FAIR" INDICATES FEW OR NO CLOUDS BELOW 12,000 FEET WITH NO
SIGNIFICANT WEATHER AND/OR OBSTRUCTIONS TO VISIBILITY.

KSZ001>006-013>018-027>032-041>047-171600-
NORTHWEST KANSAS

CITY           SKY/WX    TMP DP  RH WIND       PRES   REMARKS
GOODLAND       CLOUDY    57  31  37 SW15      29.63R
HAYS           SUNNY     51  47  86 SW10      29.62S
HILL CITY      MOSUNNY   50  43  77 CALM      29.60F
RUSSELL        CLOUDY    54  53  97 S15       29.59F
$$

KSZ061>065-074>080-084>089-171600-
SOUTHWEST KANSAS

CITY           SKY/WX    TMP DP  RH WIND       PRES   REMARKS
DODGE CITY     CLOUDY    50  40  68 SW14      29.66S
ELKHART        CLOUDY    58  35  43 W10       29.77R
GARDEN CITY    CLOUDY    60  33  36 W15       29.67R
LIBERAL        CLOUDY    60  33  36 W17       29.72S
PRATT          MOSUNNY   55  53  91 S17       29.66F
$$

KSZ066>073-081>083-090>101-171600-
SOUTHEAST KANSAS

CITY           SKY/WX    TMP DP  RH WIND       PRES   REMARKS
CHANUTE        CLOUDY    62  58  86 S18G29    29.75F
COFFEYVILLE    CLOUDY    62  58  86 S21G29    29.77F FOG
HUTCHINSON     CLOUDY    62  58  86 S15G24    29.65F
MEDICINE LODGE   N/A     57  56  96 S10       29.68F
NEWTON         CLOUDY    60  57  89 S25G32    29.67F
PARSONS          N/A    N/A N/A N/A MISG      29.77F
WICHITA INTL   CLOUDY    61  60  97 S20       29.68F FOG
WICHITA JABRA  CLOUDY    60  59  96 S20G26    29.68F FOG
WICHITA MCCONL CLOUDY    61  57  88 SW21      29.68F
WINFIELD       CLOUDY    62  61  96 S16G23    29.73F FOG
$$

KSZ007>012-019>026-033>040-048>060-102>105-171600-
NORTHEAST KANSAS

CITY           SKY/WX    TMP DP  RH WIND       PRES   REMARKS
CONCORDIA      SUNNY     57  55  93 S12       29.59S
EMPORIA        CLOUDY    56  55  97 S21       29.68F FOG
LAWRENCE       CLOUDY    59  56  89 SE13      29.70F FOG
MANHATTAN      CLOUDY    62  57  83 S16G24    29.62F
MARYSVILLE     CLOUDY    61  55  82 S12       29.61S
OLATHE IND     CLOUDY    57  54  89 S13       29.73F
OLATHE EXE     CLOUDY    56  53  90 S14       29.74F
SALINA         CLOUDY    63  58  83 S21       29.62F
TOPEKA BILLARD CLOUDY    58  58 100 S14       29.68F FOG
TOPEKA FORBES  CLOUDY    59  57  93 S16       29.68F
$$




USA.gov is the U.S. government's official web portal to all federal, state and local government web resources and services.